• En Estados Unidos
  • Lista de países
  • Para 7 días
  • Temperatura del agua
  • Mapa Satelital
  • El tiempo en el mapa
  • Informadores
  • user-avatar
    Iniciar sesión

    Tiempo cada hora Batina

    Hoy, 20 Junio, Miércoles

    Tiempo Temperatura Precipitaciones Viento Presión Humedad
    00:00 +19°C° 0 mm 2 mps 673 mmHg 62%
    01:00 +19°C° 0 mm 2 mps 673 mmHg 64%
    02:00 +18°C° 0 mm 2 mps 673 mmHg 66%
    03:00 +18°C° 0 mm 2 mps 672 mmHg 68%
    04:00 +19°C° 0 mm 1 mps 673 mmHg 65%
    05:00 +19°C° 0 mm 1 mps 673 mmHg 62%
    06:00 +20°C° 0 mm 1 mps 673 mmHg 59%
    07:00 +21°C° 0 mm 1 mps 674 mmHg 53%
    08:00 +22°C° 0 mm 1 mps 674 mmHg 46%
    09:00 +24°C° 0 mm 1 mps 675 mmHg 40%
    10:00 +25°C° 0 mm 2 mps 675 mmHg 36%
    11:00 +25°C° 0 mm 2 mps 675 mmHg 33%
    12:00 +26°C° 0 mm 2 mps 675 mmHg 30%
    13:00 +27°C° 0 mm 2 mps 675 mmHg 29%
    14:00 +27°C° 0 mm 2 mps 674 mmHg 27%
    15:00 +28°C° 0 mm 2 mps 674 mmHg 26%
    16:00 +27°C° 0 mm 3 mps 674 mmHg 27%
    17:00 +27°C° 0 mm 3 mps 674 mmHg 29%
    18:00 +27°C° 0 mm 4 mps 674 mmHg 30%
    19:00 +26°C° 0 mm 3 mps 674 mmHg 33%
    20:00 +26°C° 0 mm 3 mps 674 mmHg 37%
    21:00 +25°C° 0 mm 3 mps 674 mmHg 40%
    22:00 +24°C° 0 mm 2 mps 674 mmHg 43%
    23:00 +24°C° 0 mm 2 mps 674 mmHg 45%

    Mañana, 21 Junio, Jueves

    Tiempo Temperatura Precipitaciones Viento Presión Humedad
    00:00 +23°C° 0 mm 2 mps 674 mmHg 48%
    01:00 +21°C° 0 mm 2 mps 673 mmHg 49%
    02:00 +21°C° 0 mm 2 mps 673 mmHg 50%
    03:00 +21°C° 0 mm 2 mps 673 mmHg 52%
    04:00 +21°C° 0 mm 2 mps 673 mmHg 51%
    05:00 +21°C° 0 mm 3 mps 673 mmHg 50%
    06:00 +22°C° 0 mm 3 mps 673 mmHg 49%
    07:00 +24°C° 0 mm 3 mps 674 mmHg 45%
    08:00 +25°C° 0 mm 4 mps 674 mmHg 41%
    09:00 +26°C° 0 mm 4 mps 675 mmHg 37%
    10:00 +27°C° 0 mm 4 mps 674 mmHg 36%
    11:00 +27°C° 0 mm 4 mps 674 mmHg 34%
    12:00 +28°C° 0 mm 5 mps 674 mmHg 32%
    13:00 +28°C° 0,1 mm 4 mps 674 mmHg 32%
    14:00 +28°C° 0,1 mm 4 mps 674 mmHg 31%
    15:00 +28°C° 0,1 mm 4 mps 673 mmHg 31%
    16:00 +28°C° 0 mm 3 mps 673 mmHg 31%
    17:00 +28°C° 0 mm 3 mps 673 mmHg 32%
    18:00 +28°C° 0 mm 3 mps 673 mmHg 32%
    19:00 +27°C° 0 mm 3 mps 673 mmHg 35%
    20:00 +26°C° 0 mm 3 mps 673 mmHg 38%
    21:00 +25°C° 0 mm 3 mps 673 mmHg 41%
    22:00 +24°C° 0 mm 3 mps 673 mmHg 42%
    23:00 +24°C° 0 mm 2 mps 673 mmHg 44%

    Pasado mañana, 22 Junio, Viernes

    Tiempo Temperatura Precipitaciones Viento Presión Humedad
    00:00 +23°C° 0 mm 2 mps 672 mmHg 46%
    01:00 +23°C° 0 mm 2 mps 672 mmHg 49%
    02:00 +21°C° 0 mm 2 mps 672 mmHg 51%
    03:00 +21°C° 0 mm 2 mps 672 mmHg 53%
    04:00 +21°C° 0 mm 2 mps 672 mmHg 51%
    05:00 +23°C° 0 mm 2 mps 672 mmHg 49%
    06:00 +22°C° 0 mm 3 mps 672 mmHg 46%
    07:00 +25°C° 0 mm 3 mps 673 mmHg 41%
    08:00 +26°C° 0 mm 4 mps 673 mmHg 36%
    09:00 +28°C° 0 mm 4 mps 674 mmHg 31%
    10:00 +29°C° 0 mm 5 mps 674 mmHg 29%
    11:00 +30°C° 0 mm 5 mps 674 mmHg 26%
    12:00 +32°C° 0 mm 5 mps 674 mmHg 24%
    13:00 +32°C° 0 mm 5 mps 674 mmHg 23%
    14:00 +32°C° 0 mm 5 mps 673 mmHg 22%
    15:00 +33°C° 0 mm 4 mps 673 mmHg 21%
    16:00 +32°C° 0 mm 5 mps 673 mmHg 23%
    17:00 +32°C° 0 mm 5 mps 673 mmHg 26%
    18:00 +30°C° 0 mm 5 mps 673 mmHg 28%
    19:00 +29°C° 0 mm 4 mps 673 mmHg 34%
    20:00 +27°C° 0 mm 3 mps 673 mmHg 40%
    21:00 +26°C° 0 mm 2 mps 673 mmHg 46%
    22:00 +25°C° 0 mm 2 mps 673 mmHg 49%
    23:00 +25°C° 0 mm 2 mps 673 mmHg 52%

    23 Junio, Sábado

    Tiempo Temperatura Precipitaciones Viento Presión Humedad
    00:00 +24°C° 0 mm 2 mps 673 mmHg 54%
    01:00 +24°C° 0 mm 2 mps 672 mmHg 55%
    02:00 +23°C° 0 mm 1 mps 672 mmHg 56%
    03:00 +23°C° 0 mm 1 mps 672 mmHg 56%
    04:00 +23°C° 0 mm 1 mps 672 mmHg 53%
    05:00 +24°C° 0 mm 1 mps 672 mmHg 50%
    06:00 +25°C° 0 mm 1 mps 673 mmHg 46%
    07:00 +26°C° 0 mm 1 mps 673 mmHg 42%
    08:00 +27°C° 0 mm 1 mps 674 mmHg 37%
    09:00 +28°C° 0 mm 1 mps 674 mmHg 32%
    10:00 +30°C° 0 mm 2 mps 674 mmHg 29%
    11:00 +31°C° 0 mm 3 mps 674 mmHg 26%
    12:00 +33°C° 0 mm 3 mps 675 mmHg 23%
    13:00 +34°C° 0 mm 4 mps 674 mmHg 22%
    14:00 +35°C° 0 mm 5 mps 674 mmHg 21%
    15:00 +35°C° 0 mm 5 mps 674 mmHg 20%
    16:00 +34°C° 0,3 mm 5 mps 674 mmHg 22%
    17:00 +34°C° 0,3 mm 4 mps 674 mmHg 24%
    18:00 +33°C° 0,3 mm 4 mps 673 mmHg 26%
    19:00 +30°C° 1 mm 3 mps 673 mmHg 31%
    20:00 +29°C° 1 mm 3 mps 673 mmHg 36%
    21:00 +27°C° 1 mm 2 mps 673 mmHg 42%
    22:00 +27°C° 0,1 mm 2 mps 673 mmHg 42%
    23:00 +27°C° 0,1 mm 1 mps 673 mmHg 43%

    24 Junio, Domingo

    Tiempo Temperatura Precipitaciones Viento Presión Humedad
    00:00 +26°C° 0,1 mm 1 mps 672 mmHg 44%
    01:00 +26°C° 0,1 mm 1 mps 672 mmHg 45%
    02:00 +26°C° 0,1 mm 1 mps 672 mmHg 45%
    03:00 +25°C° 0,1 mm 1 mps 671 mmHg 46%
    04:00 +26°C° 0,1 mm 1 mps 672 mmHg 44%
    05:00 +26°C° 0,1 mm 1 mps 672 mmHg 42%
    06:00 +27°C° 0,1 mm 2 mps 672 mmHg 40%
    07:00 +28°C° 0 mm 2 mps 673 mmHg 35%
    08:00 +30°C° 0 mm 3 mps 673 mmHg 29%
    09:00 +33°C° 0 mm 4 mps 673 mmHg 24%
    10:00 +34°C° 0 mm 5 mps 673 mmHg 23%
    11:00 +35°C° 0 mm 6 mps 673 mmHg 21%
    12:00 +36°C° 0 mm 7 mps 673 mmHg 20%
    13:00 +36°C° 0 mm 6 mps 673 mmHg 19%
    14:00 +36°C° 0 mm 5 mps 672 mmHg 18%
    15:00 +37°C° 0 mm 4 mps 672 mmHg 17%
    16:00 +36°C° 0 mm 4 mps 672 mmHg 20%
    17:00 +35°C° 0 mm 4 mps 671 mmHg 23%
    18:00 +34°C° 0 mm 4 mps 671 mmHg 25%
    19:00 +32°C° 0,1 mm 5 mps 671 mmHg 30%
    20:00 +30°C° 0,1 mm 5 mps 671 mmHg 35%
    21:00 +28°C° 0,1 mm 5 mps 671 mmHg 39%
    22:00 +27°C° 0 mm 5 mps 671 mmHg 40%
    23:00 +27°C° 0 mm 4 mps 670 mmHg 41%

    25 Junio, Lunes

    Tiempo Temperatura Precipitaciones Viento Presión Humedad
    00:00 +26°C° 0 mm 4 mps 670 mmHg 42%
    01:00 +25°C° 0 mm 3 mps 670 mmHg 43%
    02:00 +25°C° 0 mm 3 mps 669 mmHg 44%
    03:00 +24°C° 0 mm 3 mps 669 mmHg 45%
    04:00 +24°C° 0 mm 3 mps 670 mmHg 43%
    05:00 +25°C° 0 mm 3 mps 670 mmHg 41%
    06:00 +25°C° 0 mm 3 mps 670 mmHg 38%
    07:00 +26°C° 0 mm 3 mps 671 mmHg 35%
    08:00 +27°C° 0 mm 4 mps 671 mmHg 31%
    09:00 +29°C° 0 mm 4 mps 672 mmHg 27%
    10:00 +30°C° 0 mm 5 mps 672 mmHg 26%
    11:00 +30°C° 0 mm 5 mps 672 mmHg 26%
    12:00 +32°C° 0 mm 6 mps 672 mmHg 25%
    13:00 +32°C° 0 mm 6 mps 672 mmHg 25%
    14:00 +32°C° 0 mm 7 mps 672 mmHg 26%
    15:00 +32°C° 0 mm 7 mps 672 mmHg 26%
    16:00 +30°C° 0 mm 7 mps 672 mmHg 29%
    17:00 +29°C° 0 mm 7 mps 672 mmHg 31%
    18:00 +28°C° 0 mm 7 mps 672 mmHg 34%
    19:00 +27°C° 0 mm 6 mps 672 mmHg 36%
    20:00 +26°C° 0 mm 5 mps 673 mmHg 38%
    21:00 +23°C° 0 mm 4 mps 673 mmHg 41%
    22:00 +24°C° 0 mm 3 mps 673 mmHg 42%
    23:00 +22°C° 0 mm 3 mps 673 mmHg 43%
    Mostrar más